Location: Bottom School (historical)
(37.9078°N, 89.3593°W)
Time: 21:36:29
(UTC+00:00)

UNISAT 6 - Pass Details

Date: 09 April 2023
Orbit: 599 x 679 km, 97.7° (Epoch: 08 June)

Event Time Altitude Azimuth Distance (km) Brightness Sun altitude
Rises 10:00:27 0° 140° (SE) 2,945 ? -17.8°
Reaches altitude 10° 10:02:50 10° 129° (SE) 2,054 ? -17.4°
Maximum altitude 10:06:43 29° 70° (ENE) 1,207 ? -16.7°
Drops below altitude 10° 10:10:40 10° 11° (N) 2,104 ? -16.0°
Sets 10:13:08 0° 0° (N) 3,032 ? -15.6°
